Preview of NWS' New Version of Forecast
This preview is not operational and should not be used for support decisions.

Regional Weather Roundup (RWR)

Issued by National Weather Service (NWS)

                            
000
ASUS42 KTBW 230616
RWRFL 
FLORIDA REGIONAL WEATHER ROUNDUP
NATIONAL WEATHER SERVICE TAMPA BAY RUSKIN FL
200 AM EDT THU MAY 23 2019

NOTE: "FAIR" INDICATES FEW OR NO CLOUDS BELOW 12,000 FEET WITH NO
SIGNIFICANT WEATHER AND/OR OBSTRUCTIONS TO VISIBILITY.

FLZ001>010-012>015-112-114-115-230700-
PANHANDLE FLORIDA
  
CITY           SKY/WX    TMP DP  RH WIND       PRES   REMARKS
PENSACOLA      FAIR      75  73  93 CALM      30.10S                  
PENSACOLA NAS  FAIR      78  71  79 SE5       30.09S                  
MILTON NAS     FAIR      66  66 100 CALM      30.11S                  
CRESTVIEW      FAIR      67  63  87 CALM      30.12S                  
DUKE FIELD     FAIR      68  65  89 CALM      30.10S                  
VALPARAISO     FAIR      73  67  81 CALM      30.09F                  
MARY ESTHER    CLEAR     70  69  95 CALM      30.08F                  
PANAMA CITY    CLOUDY    74  71  91 CALM      30.10F                  
TYNDALL AFB    FAIR      73  71  93 CALM      30.10S                  
APALACHICOLA   FAIR      78  72  81 E5        30.11F                  

STATION/POSITION SKY/WX   TEMP    WIND        PRES    WAVE   SWELL
                          AIR SEA DIR/SP/G            HT/PER HT/PER
                          (F)     (DEG/KT/KT) (MB)    (FT/S) (FT/S)
30.1N   87.6W                                   N/A     3/ 6
29.2N   88.2W                     140/ 14/ 16 1018.9F   4/ 6   2/ 8
PANAMA CITY BEAC                   50/  2/  3 1019.8F
TOWER C          NOT AVBL

$$
FLZ011-016>038-118-127-128-134-139-239-230700-
NORTH FLORIDA
  
CITY           SKY/WX    TMP DP  RH WIND       PRES   REMARKS
MARIANNA       MOCLDY    79  73  82 S5        30.10S                  
TALLAHASSEE    FAIR      78  68  71 SE12      30.15S                  
PERRY          FAIR      73  68  83 E5        30.17S                  
LIVE OAK       CLEAR     72  70  94 CALM      30.17S                  
CROSS CITY     FAIR      69  66  89 E3        30.17S                  
LAKE CITY      FAIR      68  64  88 CALM      30.18F FOG              
GAINESVILLE    FAIR      73  67  81 CALM      30.20F                  
WILLISTON      FAIR      70  66  88 CALM      30.17S                  
PALATKA        FAIR     N/A N/A N/A E3        30.17F                  
MAYPORT NAS    FAIR      79  73  82 SE13      30.17F                  
JACKSONVILLE   FAIR      72  69  90 CALM      30.17F                  
JAX NAS        FAIR      79  70  74 SE9       30.17F                  
JAX CECIL      FAIR      70  68  94 CALM      30.17F                  
FERNANDINA BEA MOCLDY    78  73  84 SE8       30.18F                  
ST AUGUSTINE   MOCLDY    78  71  79 SE10      30.18F                  
PALM COAST     FAIR      75  67  76 SE8       30.16F                  

STATION/POSITION SKY/WX   TEMP    WIND        PRES    WAVE   SWELL
                          AIR SEA DIR/SP/G            HT/PER HT/PER
                          (F)     (DEG/KT/KT) (MB)    (FT/S) (FT/S)
SHELL POINT                83 80  120/ 16/ 23 1019.8
KEATON BEACH               72      90/  5/  6 1021.4F
CEDAR KEY                  77     110/ 16/ 18 1021.3F
FERNANDINA                        110/  4/  6   N/A
30.7N   81.3W                 80                N/A     2/ 9
MAYPORT                           120/  7/ 10 1022.0F
31.4N   80.9W              79 78  130/ 16/ 19 1021.9F   2/ 9   2/ 9
ST AUGUSTINE               79 81  130/ 14/ 15 1021.8F

$$
FLZ040-043>046-052-053-057-058-063-144-230700-
INTERIOR CENTRAL FLORIDA
  
CITY           SKY/WX    TMP DP  RH WIND       PRES   REMARKS
OCALA          FAIR      72  67  84 E3        30.17F                  
LEESBURG       FAIR      74  66  76 E8        30.17F                  
SANFORD        FAIR      72  67  84 E3        30.16F                  
ORLANDO EXEC   FAIR      73  66  78 E8        30.15F                  
ORLANDO INTL   FAIR      73  65  75 E8        30.15F                  
KISSIMMEE      FAIR      74  66  76 E5        30.16                   
WINTER HAVEN   FAIR      73  66  78 E7        30.16F                  
BARTOW         FAIR      70  66  88 NE5       30.14F                  
SEBRING        FAIR      69  65  88 E3        30.14F                  
OKEECHOBEE     FAIR      68  64  88 NE3       30.13F                  

$$
FLZ041-047-054-059-064-141-147-230700-
EAST CENTRAL FLORIDA
  
CITY           SKY/WX    TMP DP  RH WIND       PRES   REMARKS
DAYTONA BEACH  FAIR      77  70  79 VRB6      30.16F                  
DELAND         FAIR      70  66  88 CALM      30.16F                  
CAPE CANAVERAL FAIR      77  60  56 E10       30.14F                  
PATRICK AFB    FAIR      78  67  69 E15       30.14F                  
MELBOURNE      FAIR      79  64  60 E16       30.14F                  
VERO BEACH     FAIR      77  65  66 E12       30.14F                  
FT PIERCE      FAIR      76  65  68 E9        30.13                   
STUART         FAIR      77  66  69 E12       30.14F                  

STATION/POSITION SKY/WX   TEMP    WIND        PRES    WAVE   SWELL
                          AIR SEA DIR/SP/G            HT/PER HT/PER
                          (F)     (DEG/KT/KT) (MB)    (FT/S) (FT/S)
28.5N   80.2W              79     100/ 16/ 19 1021.3
28.9N   78.5W              78 79   80/ 14/ 17 1021.6F   3/ 7   2/ 7
TRIDENT PIER                       80/ 10/ 16 1022.4F
28.4N   80.5W                 80                N/A     3/ 5
27.5N   80.2W                 79                N/A     4/ 5

$$
FLZ050-056-061-142-242-148-248-149-249-151-251-155-255-
160-260-230700-
WEST CENTRAL FLORIDA
  
CITY           SKY/WX    TMP DP  RH WIND       PRES   REMARKS
CRYSTAL RIVER  FAIR      68  64  88 CALM      30.16S                  
INVERNESS      FAIR      70  70 100 CALM      30.16F                  
BROOKSVILLE    FAIR      69  63  81 E5        30.15F                  
CLEARWATER AIR FAIR      75  63  64 E10G17    30.13F                  
ST PETE CLEARW FAIR      76  65  68 E15       30.13F                  
TAMPA INTL     FAIR      76  64  66 VRB5      30.14F                  
TAMPA EXEC     FAIR      64  63  94 CALM      30.15F                  
PLANT CITY     FAIR      73  66  78 E5        30.16F                  
MACDILL AFB    FAIR      74  65  73 E10       30.13F                  
PETER O KNIGHT CLOUDY    73  68  83 E5        30.14F                  
ST PETERSBURG    N/A    N/A N/A N/A MISG      30.13F                  
SARASOTA       FAIR      74  64  71 E10       30.11F                  
VENICE         FAIR      73  66  78 E8        30.13F                  

STATION/POSITION SKY/WX   TEMP    WIND        PRES    WAVE   SWELL
                          AIR SEA DIR/SP/G            HT/PER HT/PER
                          (F)     (DEG/KT/KT) (MB)    (FT/S) (FT/S)
27.3N   84.2W                 81                N/A     3/ 4
CLEARWATER BEACH                   90/ 12/ 19 1020.4F
MIDDLE TAMPA BAY                  110/ 12/ 13 1020.5F
VENICE                     73 83   80/  6/  9 1019.8F

$$
FLZ066-069-070-075>078-162-262-165-265-230700-
SOUTHWEST FLORIDA AND KEYS
  
CITY           SKY/WX    TMP DP  RH WIND       PRES   REMARKS
PUNTA GORDA    FAIR      70  65  84 E6        30.13F                  
FT MYERS       FAIR      74  68  81 E6        30.10F                  
SOUTHWEST INTL FAIR      74  67  78 E8        30.11F                  
NAPLES         FAIR      75  69  81 NE8       30.10F                  
MARCO ISLAND   FAIR      73  69  87 NE7       30.11F                  
IMMOKALEE      FAIR      73  68  83 NE5       30.09F                  
MARATHON       MOCLDY    84  70  62 E13G22    30.06F                  
KEY WEST NAS   MOCLDY    83  71  67 E14       30.06F                  
KEY WEST INTL  MOCLDY    81  70  69 E9G16     30.06F                  

STATION/POSITION SKY/WX   TEMP    WIND        PRES    WAVE   SWELL
                          AIR SEA DIR/SP/G            HT/PER HT/PER
                          (F)     (DEG/KT/KT) (MB)    (FT/S) (FT/S)
NAPLES                                        1019.4F
DRY TORTUGAS               82     110/ 18/ 21 1017.9F
SAND KEY                   81                 1017.7F
SOMBRERO KEY               81                 1017.3F

$$
FLZ067-068-071>074-168-172>174-230700-
SOUTHEAST FLORIDA 
  
CITY           SKY/WX    TMP DP  RH WIND       PRES   REMARKS
W PALM BEACH   FAIR      80  68  66 E14       30.12F                  
FT LAUDER-EXEC FAIR      80  68  66 E17G23    30.10F                  
FT LAUDERDALE  MOCLDY    79  70  74 E16       30.09F                  
POMPANO BEACH  FAIR      80  69  69 E14       30.10F                  
PEMBROKE PINES CLOUDY    80  68  66 E13       30.11F                  
OPA LOCKA      FAIR      80  69  69 E9        30.10F                  
MIAMI          FAIR      81  68  64 E16       30.09F                  
WEST KENDALL   MOCLDY    80  69  69 E12       30.08F                  
HOMESTEAD      MOCLDY    80  69  69 E13       30.07F                  

STATION/POSITION SKY/WX   TEMP    WIND        PRES    WAVE   SWELL
                          AIR SEA DIR/SP/G            HT/PER HT/PER
                          (F)     (DEG/KT/KT) (MB)    (FT/S) (FT/S)
PORT EVERGLADES            80      70/ 12/ 17 1019.2
VIRGINIA KEY                       80/ 17/ 21 1018.3F
LAKE WORTH                                    1020.8F
SETTLEMENT POINT           79      70/ 16/ 18 1020.0F

$$